Regional Weather Roundup
Issued by NWS Wilmington, NC

Home | Current Version | Previous Version | Text Only | Print | Product List | Glossary On
Versions: 1 2 3 4 5 6 7 8 9 10 11 12 13 14 15 16 17 18 19 20 21 22 23 24 25 26 27 28 29 30 31 32 33 34 35 36 37 38 39 40 41 42 43 44 45 46 47 48 49 50
000
ASUS42 KILM 251410
RWRILM
RWRILM
REGIONAL HOURLY WEATHER ROUNDUP
NATIONAL WEATHER SERVICE WILMINGTON NC
1000 AM EDT FRI JUL 25 2014

NOTE: "FAIR" INDICATES FEW OR NO CLOUDS BELOW 12,000 FEET WITH NO
SIGNIFICANT WEATHER AND/OR OBSTRUCTIONS TO VISIBILITY.

...............WFO WILMINGTON COUNTY WARNING AREA...............

......COASTAL NC AND SC COUNTIES......

CITY           SKY/WX    TMP DP  RH WIND       PRES   REMARKS
WILMINGTON     CLOUDY    73  71  93 N6        30.03R
SOUTHPORT      CLOUDY    76  73  88 N6        30.03R
N MYRTLE BEACH CLOUDY    78  73  84 N5        30.03R
MYRTLE BEACH   NOT AVBL

......INLAND NC AND SC COUNTIES.......

CITY           SKY/WX    TMP DP  RH WIND       PRES   REMARKS
LUMBERTON      PTSUNNY   75  67  76 NE7       30.04R
ELIZABETHTOWN  CLOUDY    71  69  90 CALM      30.04S
WHITEVILLE     CLOUDY    72  70  95 N5        30.03S FOG
FLORENCE       CLOUDY    73  70  90 NE9       30.04R FOG
DARLINGTON     CLOUDY    75  70  83 NE8       30.05S

....................REST OF NORTH CAROLINA......................

.........EASTERN NC.........

CITY           SKY/WX    TMP DP  RH WIND       PRES   REMARKS
CAPE HATTERAS  MOSUNNY   79  70  74 VRB6      30.02S
JACKSONVILLE   CLOUDY    72  66  83 N8        30.05R
MOREHEAD CITY  MOSUNNY   77  70  79 N8        30.03S
KENANSVILLE    PTSUNNY   72  67  83 N5        30.07R
NEW BERN       PTSUNNY   76  69  79 N5        30.06R
ELIZABETH CITY SUNNY     77  67  71 N13       30.04R

.........CENTRAL NC.........

CITY           SKY/WX    TMP DP  RH WIND       PRES   REMARKS
RALEIGH DURHAM PTSUNNY   74  67  78 NE10      30.07S
ROCKY MOUNT    CLOUDY    74  68  81 NE5       30.06S
ROANOKE RAPIDS NOT AVBL
FAYETTEVILLE   MOSUNNY   76  67  73 NE8       30.05S
HOFFMAN        SUNNY     76  66  70 NE7       30.07R

.........WESTERN NC.........

CITY           SKY/WX    TMP DP  RH WIND       PRES   REMARKS
CHARLOTTE      CLOUDY    73  65  75 NE8       30.09R
GREENSBORO     PTSUNNY   72  65  78 VRB5      30.09R
HICKORY        NOT AVBL
BOONE          NOT AVBL
ASHEVILLE      NOT AVBL

.....................REST OF SOUTH CAROLINA.....................

.........EASTERN SC.........

CITY           SKY/WX    TMP DP  RH WIND       PRES   REMARKS
CHARLESTON     MOSUNNY   86  73  65 W3        30.03R HX  93
BEAUFORT MCAS  MOSUNNY   84  74  71 NW9       30.03R HX  91
HILTON HEAD    NOT AVBL

.........CENTRAL SC.........

CITY           SKY/WX    TMP DP  RH WIND       PRES   REMARKS
COLUMBIA       PTSUNNY   82  70  66 NE3       30.03R
ORANGEBURG     SUNNY     83  71  67 NW5       30.03R
SUMTER SHAW    CLOUDY    73  72  94 NE7       30.03R

.........WESTERN SC.........

CITY           SKY/WX    TMP DP  RH WIND       PRES   REMARKS
GREENVILLE     NOT AVBL
ROCK HILL      CLOUDY    70  65  84 CALM      30.09R
ANDERSON       PTSUNNY   77  68  73 E7        30.07R
CLEMSON        NOT AVBL
GREENWOOD      CLOUDY    73  68  84 NE8       30.08R


...................COASTAL AND OFFSHORE REPORTS..................

................LOCAL PIERS AND NC RESERVE................


STATION/POSITION TIME  SKY/WX   TEMP    WIND        PRES    VSBY
                                AIR SEA DIR/SP/G
                 (UTC)          (F)     (DEG/KT/KT) (MB)    (MI)
JOHNY MRCER PIER 1400            73 83   20/  7/  8 1016.3F
NC RESRV MASNBRO 1300            73      10/  4     1016.0S
OCEAN CREST PIER 1400            75 83   10/  8/ 10 1015.7R
SPRINGMAID  PIER 1400            81 83  350/  3/  3 1016.6R


................COASTAL AND OFFSHORE BUOYS................


STATION/POSITION TIME  SKY/WX   TEMP    WIND        PRES    VSBY
                                AIR SEA DIR/SP/G
                 (UTC)          (F)     (DEG/KT/KT) (MB)    (MI)
DIMNDSHOAL 41025 1400                   VRB 12/ 14  1016.2R
WVE H/P(F/S)=  3/ 7 WND WVE H/P(F/S)=  2/ 4 SWL H/P/D(F/S/D)=  2/150/ 7

CAPE LOOKOUT     1300            73      10/  9/ 11 1016.5S
ONSLOW BAY 41036 1400            75 81   30/ 14/ 16 1017.0R
WVE H/P(F/S)=  4/ 6 WND WVE H/P(F/S)=  3/ 6 SWL H/P/D(F/S/D)=  3/170/10

5 WRITEBCH 41038 1300            72 81   20/  8/ 10   N/A
MASONBORO  41110 1400               81                N/A
WVE H/P(F/S)=  3/ 6 WND WVE H/P(F/S)=  3/ 6

WILM HARBR 41108 NOT AVBL
27WRITEBCH 41037 1300            74 81   20/ 12/ 16 1016.1R
FRYING PAN 41013 NOT AVBL
SUNST NRSH 41024 1300            78     360/ 12/ 14 1016.0R
CAPRS NRSH 41029 1300            81     250/ 10/ 12   N/A
EDISTO     41004 1400            82 82  260/ 12/ 14 1016.1R
WVE H/P(F/S)=  4/ 6 WND WVE H/P(F/S)=  3/ 4 SWL H/P/D(F/S/D)=  3/ 6



..........OFFSHORE BUOYS BEYOND 100 NM OFFSHORE...........
.....IN A TRIANGLE---HAT TO BERMUDA TO BAHAMAS TO HAT.....


STATION/POSITION TIME  SKY/WX   TEMP    WIND        PRES    VSBY
                                AIR SEA DIR/SP/G
                 (UTC)          (F)     (DEG/KT/KT) (MB)    (MI)
150E HAT   41001 NOT AVBL
W BERMUDA  41048 1305            82 82  220/ 16/ 17 1019.1
WVE H/P(F/S)=  6/ 6 WND WVE H/P(F/S)=  5/ 6 SWL H/P/D(F/S/D)=  2/ 50/10

ATLANTIC S 41049 1255            82 83  130/  8/ 10 1023.9
WVE H/P(F/S)=  3/ 8 WND WVE H/P(F/S)=  2/ 4 SWL H/P/D(F/S/D)=  3/150/ 8

E BAHAMAS  41046 1323            83 84  100/ 10/ 12 1021.4R
WVE H/P(F/S)=  4/ 8 WND WVE H/P(F/S)=  2/ 5 SWL H/P/D(F/S/D)=  3/120/ 8

NE BAHAMAS 41047 1252            83 84  190/  8/ 10 1021.8R
WVE H/P(F/S)=  3/ 7 WND WVE H/P(F/S)=  2/ 4 SWL H/P/D(F/S/D)=  3/140/ 7

120E CANVRL41010 1400            83 84  220/ 14/ 16 1019.2S
WVE H/P(F/S)=  3/ 6 WND WVE H/P(F/S)=  2/ 6 SWL H/P/D(F/S/D)=  2/13


END


USA.gov is the U.S. government's official web portal to all federal, state and local government web resources and services.